Preview of NWS' New Version of Forecast
This preview is not operational and should not be used for support decisions.

Regional Weather Roundup (RWR)

Issued by National Weather Service (NWS)

                            
000
ASUS45 KABQ 201901
RWRNM 
NEW MEXICO REGIONAL WEATHER ROUNDUP
NATIONAL WEATHER SERVICE ALBUQUERQUE NM
1200 PM MST WED FEB 20 2019

NOTE: "FAIR" MEANS FEW OR NO CLOUDS BELOW 12,000 FEET AGL WITH NO
       SIGNIFICANT WEATHER OR OBSTRUCTIONS TO VISION.

      THIS PRODUCT IS RELEASED AS TWO VERSIONS.  ONE VERSION NEAR
      THE TOP OF THE HOUR CONTAINING PRELIMINARY DATA FROM ALBUQUERQUE
      AND OTHER STATIONS.  A FINAL VERSION WITH ADDITIONAL DATA IS 
      ISSUED ABOUT 10 MINUTES AFTER THE HOUR.
 
NMZ501-503-504-510>518-202000-
NORTHWEST PLATEAU/NORTHCENTRAL MOUNTAINS
  
CITY           SKY/WX    TMP DP  RH WIND       PRES   REMARKS
FARMINGTON     FAIR      25  11  55 E9        29.84F WCI  15          
LOS ALAMOS     FAIR      25   8  47 SE6       29.79S WCI  18          
SANTA FE       FAIR      28   8  43 W16G26    29.82S WCI  16          
TAOS           PTSUNNY   27   8  44 MISG      29.80F                  
ANGEL FIRE       N/A     16   5  62 W15G23    29.71F WCI   1          

$$
NMZ402-403-502-505>509-202000-
WESTCENTRAL MOUNTAINS/SOUTHWEST MOUNTAINS
  
CITY           SKY/WX    TMP DP  RH WIND       PRES   REMARKS
GALLUP         FAIR      26  12  55 SW14      29.82F WCI  14          
GRANTS         FAIR      29  12  49 SW12G17   29.84F WCI  19          
SILVER CITY    FAIR      37  12  35 NW6       29.92F WCI  32          

$$
NMZ407-409-411-412-202000-
SOUTHERN DESERTS
  
CITY           SKY/WX    TMP DP  RH WIND       PRES   REMARKS
DEMING         FAIR      45   7  21 W14G26    29.93F                  
LAS CRUCES     FAIR      46  11  24 W15G22    29.94F                  
ALAMOGORDO     FAIR      43   5  21 SE3       29.92F                  
T OR C         FAIR      41   5  22 MISG      29.88F                  

$$
NMZ519>523-202000-
CENTRAL VALLEYS/CENTRAL HIGHLANDS
  
CITY           SKY/WX    TMP DP  RH WIND       PRES   REMARKS
ALBUQUERQUE    FAIR      33  11  39 W9        29.88F WCI  25          
DOUBLE EAGLE   MOSUNNY   30  12  47 W13G23    29.87F WCI  20          
CLINES CORNERS FAIR      25  12  58 W45G54    29.72F WCI   5          
BELEN          FAIR      38   7  28 W14G23    29.88F WCI  29          
SOCORRO        FAIR      40  10  29 CALM      29.88F                  

$$
NMZ524>526-539-540-202000-
SOUTHCENTRAL MOUNTAINS
  
CITY           SKY/WX    TMP DP  RH WIND       PRES   REMARKS
RUIDOSO        NOT AVBL                                               

$$
NMZ527>531-202000-
NORTHEAST HIGHLANDS/NORTHEAST PLAINS
  
CITY           SKY/WX    TMP DP  RH WIND       PRES   REMARKS
LAS VEGAS      FAIR      35  13  40 SW8       29.65S WCI  29          
RATON          FAIR      29  12  49 S13       29.63F WCI  19          
CLAYTON        FAIR      29  11  47 S7        29.72F WCI  22          

$$
NMZ532>537-202000-
EASTCENTRAL PLAINS
  
CITY           SKY/WX    TMP DP  RH WIND       PRES   REMARKS
SANTA ROSA     FAIR      39  10  29 W30G38    29.78F WCI  28          
TUCUMCARI      FAIR      48   7  18 W28G37    29.76S                  
CANNON AFB     FAIR      41  13  32 W24G31    29.84S                  
CLOVIS AIRPORT FAIR      42  15  33 W30       29.83F                  

$$
NMZ028-029-538-202000-
SOUTHEAST PLAINS
  
CITY           SKY/WX    TMP DP  RH WIND       PRES   REMARKS
ROSWELL        FAIR      47   7  19 VRB6      29.85F                  
ARTESIA        FAIR      52   3  14 SW10G17   29.85F                  
CARLSBAD       FAIR      52   4  14 W17G29    29.87F                  
HOBBS          SUNNY     52  -2  11 SW16G28   29.90F                  


$$